SCP
0 0 0 0 0 0 0 0 0 0 0 0 0 0 0 0 0 0 0 0 0 0 0 0 0 0 0 0 0 0 0 0 0 0 0 0 0 0 0 0 0 0 0 0 0 0 0
0 0 0 0 0 0 0 0 0 0 0 0 0 0 0 0 0 0 0 0 0 0 0 0 0 0 0 0 0 0 0 0 0 0 0 0 0 0 0 0 0 0 0 0 0 0 0
0 0 0 0 0 0 0 0 0 0 0 0 0 0 0 0 0 0 0 0 0 0 0 0 0 0 0 0 0 0 0 0 0 0 0 0 0 0 0 0 0 0 0 0 0 0 0
0 0 0 0 0 0 0 0 0 0 0 0 0 0 0 0 0 0 0 0 0 0 0 0 0 0 0 0 0 0 0 0 0 0 0 0 0 0 0 0 0 0 0 0 0 0 0
0 0 0 0 0 0 0 0 0 0 0 0 0 0 0 0 0 0 0 0 0 0 0 0 0 0 0 0 0 0 0 0 0 0 0 0 0 0 0 0 0 0 0 0 0 0 0
0 0 0 0 0 0 0 0 0 0 0 0 0 0 0 0 0 0 0 0 0 0 0 0 0 0 0 0 0 0 0 0 0 0 0 0 0 0 0 0 0 0 0 0 0 0 0
0 0 0 0 0 0 0 0 0 0 0 0 0 0 0 0 0 0 0 0 0 0 0 0 0 0 0 0 0 0 0 0 0 0 0 0 0 0 0 0 0 0 0 0 0 0 0
0 0 0 0 0 0 0 0 0 0 0 0 0 0 0 0 0 0 0 0 0 0 0 0 0 0 0 0 0 0 0 0 0 0 0 0 0 0 0 0 0 0 0 0 0 0 0
0 0 0 0 0 0 0 0 0 0 0 0 0 0 0 0 0 0 0 0 0 0 0 0 0 0 0 0 0 0 0 0 0 0 0 0 0 0 0 0 0 0 0 0 0 0 0
0 0 0 0 0 0 0 0 0 0 0 0 0 0 0 0 0 0 0 0 0 0 0 0 0 0 0 0 0 0 0 0 0 0 0 0 0 0 0 0 0 0 0 0 0 0 0
0 0 0 0 0 0 0 0 0 0 0 0 0 0 0 0 0 0 0 0 0 0 0 0 0 0 0 0 0 0 0 0 0 0 0 0 0 0 0 0 0 0 0 0 0 0 0
0 0 0 0 0 0 0 0 0 0 0 0 0 0 0 0 0 0 0 0 0 0 0 0 0 0 0 0 0 0 0 0 0 0 0 0 0 0 0 0 0 0 0 0 0 0 0
0 0 0 0 0 0 0 0 0 0 0 0 0 0 0 0 0 0 0 0 0 0 0 0 0 0 0 0 0 0 0 0 0 0 0 0 0 0 0 0 0 0 0 0 0 0 0
0 0 0 0 0 0 0 0 0 0 0 0 0 0 0 0 0 0 0 0 0 0 0 0 0 0 0 0 0 0 0 0 0 0 0 0 0 0 0 0 0 0 0 0 0 0 0
0 0 0 0 0 0 0 0 0 0 0 0 0 0 0 0 0 0 0 0 0 0 0 0 0 0 0 0 0 0 0 0 0 0 0 0 0 0 0 0 0 0 0 0 0 0 0
0 -0 0 0 0 0 0 0 0 0 0 0 0 0 0 0 0 0 0 0 0 0 0 0 0 0 0 0 0 0 0 0 0 0 0 0 0 0 0 0 0 0 0 0 0 0 0
0 0 0 0 0 0 0 0 0 0 0 0 0 0 0 0 0 0 0 0 0 0 0 0 0 0 0 0 0 0 0 0 0 0 0 0 0 0 0 0 0 0 0 0 0 0 0
0 0 0 0 0 0 0 0 0 0 0 0 0 0 0 0 0 0 0 0 0 0 0 0 0 0 0 0 0 0 0 0 0 0 0 0 0 0 0 0 0 0 0 0 0 0 0
0 0 0 0 0 0 0 0 0 0 0 0 0 0 0 0 0 0 0 0 0 0 0 0 0 0 0 0 0 0 0 0 0 0 0 0 0 0 0 0 0 0 0 0 0 0 0
0 0 0 0 0 0 0 0 0 0 0 0 0 0 0 0 0 0 0 0 0 0 0 0 0 0 0 0 0 0 0 0 0 0 0 0 0 0 0 0 0 0 0 0 0 0 0
-0 -0 0 0 0 0 -0 -0 -0 0 0 0 0 0 0 0 0 0 0 0 0 0 0 0 0 0 0 0 0 0 0 0 0 0 0 0 0 0 0 0 0 0 0 0 0 0 0
0 -0 0 -0 -0 0 0 -0 -0 0 0 0 0 0 0 0 0 0 0 0 0 0 0 -0 0 0 0 0 0 0 0 0 0 0 0 0 0 0 0 0 0 0 0 0 0 0 0
-0 -0 -0 -0 0 0 0 -0 -0 0 0 0 0 0 0 0 0 0 0 0 0 0 0 0 -0 0 0 -0 0 0 0 0 0 0 0 0 0 0 0 0 0 0 0 0 0 0 0
-0 0 0 0 0 0 0 0 0 0 0 0 0 0 0 0 0 0 0 0 0 0 0 0 0 0 0 0 0 0 0 0 0 0 0 0 0 0 0 0 0 0 0 0 0 0 0
-0 -0 0 0 0 0 0 0 0 0 0 0 0 0 0 0 0 0 0 0 0 0 0 0 0 0 0 0 0 0 0 0 0 0 0 0 0 0 0 0 0 0 0 0 0 0 0
-0 0 0 0 0 0 0 0 0 -0 0 0 0 0 0 0 0 0 0 0 0 0 0 0 0 0 0 0 0 0 0 0 0 0 0 0 0 0 0 0 0 0 0 0 0 0 0
-0 -0 -0 -0 0 0 0 0 -0 0 -0 0 0 0 0 0 0 0 0 0 0 0 0 0 0 0 0 0 0 0 0 0 0 0 0 0 0 0 0 0 0 0 0 0 0 0 0
-0 -0 -0 0 0 0 0 -0 0 -0 -0 0 0 0 0 0 0 0 0 0 0 0 0 0 0 0 0 0 0 0 0 0 0 0 0 0 0 0 0 0 0 0 0 0 0 0 0
0 0 0 0 -0 0 0 0 0 0 -0 0 0 0 0 0 0 0 0 0 0 0 0 0 0 0 0 0 0 0 0 0 0 0 0 0 0 0 0 0 0 0 0 0 0 0 0
Wind_Speed_500mb
52 52 62 58 61 56 59 61 56 51 48 47 48 50 55 47 46 48 44 36 37 32 32 29 32 34 32 26 37 3 11 7 26 31 33 28 17 11 6 9 15 13 27 37 38 39 15
62 65 62 55 62 60 53 61 63 58 57 58 55 52 52 53 47 44 48 43 35 35 32 31 30 35 36 35 27 49 18 8 13 32 34 30 12 19 18 15 9 16 15 10 14 26 23
68 60 57 63 73 70 66 65 61 62 61 58 52 46 45 50 46 42 43 46 41 36 35 31 31 37 48 49 18 21 34 34 35 21 34 41 31 24 2 6 17 13 6 11 14 25 13
67 61 60 61 62 64 64 62 68 62 62 62 60 54 51 43 47 41 39 39 44 38 35 34 33 33 30 30 61 22 12 26 23 23 17 27 31 36 24 16 15 7 1 4 9 29 31
67 67 59 61 63 60 67 66 66 64 65 60 59 53 48 49 43 43 37 35 39 41 33 35 36 33 21 24 59 54 16 30 31 23 19 22 24 23 9 7 6 5 8 13 11 31 9
67 66 66 58 66 64 65 68 72 66 63 63 63 56 48 46 42 37 36 31 32 37 39 36 35 18 40 22 30 55 50 33 39 37 27 27 15 5 6 10 22 18 12 11 14 13 12
57 67 63 65 67 70 68 69 63 64 63 61 61 58 51 46 42 37 34 32 21 18 48 23 28 27 5 45 28 44 59 45 39 34 15 16 8 26 27 17 9 11 9 14 8 9 12
60 64 68 66 66 71 67 66 67 65 60 62 60 59 57 51 41 42 43 49 38 8 15 68 28 68 41 24 27 38 55 41 36 14 16 6 37 11 14 15 17 21 21 31 12 9 8
59 67 71 71 72 71 70 70 70 64 65 58 57 55 50 49 43 48 59 62 37 35 6 18 73 46 59 57 30 52 57 50 11 18 25 24 10 41 19 20 16 20 31 15 20 10 6
61 62 69 64 67 69 64 65 67 68 69 67 62 60 55 42 46 55 60 54 45 24 8 14 24 32 60 29 20 46 68 47 16 34 23 23 22 14 19 34 22 30 18 12 10 8 14
55 60 50 48 58 62 67 66 65 66 67 64 66 62 58 59 50 60 33 49 47 30 16 20 27 21 49 51 19 49 63 55 21 15 17 19 16 28 33 30 19 19 11 13 14 12 4
51 55 56 61 60 62 64 64 63 61 62 61 63 62 60 60 62 55 61 37 41 19 17 17 29 32 28 58 24 31 59 54 23 9 3 15 5 9 11 17 29 6 2 8 9 5 17
51 60 59 63 60 64 62 62 61 59 57 58 59 61 61 64 76 53 51 53 20 23 13 17 20 28 51 29 47 21 37 38 24 23 33 10 8 3 6 9 7 7 9 5 9 10 20
58 60 62 65 64 64 62 62 61 58 59 57 57 55 60 65 64 66 67 21 33 20 13 5 18 33 53 48 37 39 35 37 42 20 18 27 17 20 12 18 10 18 22 8 15 12 8
57 63 67 65 65 61 59 56 55 54 55 56 52 53 56 64 69 72 55 33 23 12 23 22 14 30 36 46 24 44 43 47 34 46 18 25 17 7 13 11 17 8 19 18 16 5 5
57 48 57 59 60 57 52 56 53 53 53 52 55 51 60 66 66 80 31 33 8 19 14 23 31 20 40 49 40 47 51 34 40 35 12 13 6 8 13 9 6 15 9 6 8 8 15
62 48 47 41 50 48 50 53 50 53 53 50 52 28 44 70 68 55 18 25 21 17 32 24 42 26 16 29 36 39 23 17 39 44 42 11 7 8 20 24 27 14 10 7 6 5 4
63 56 48 41 44 51 52 52 53 55 56 52 39 8 43 73 17 6 23 12 33 7 34 17 9 26 34 37 17 42 42 36 72 64 40 22 10 11 8 1 2 29 22 21 9 9 6
65 62 58 53 50 47 47 46 56 56 56 63 19 21 47 78 17 6 9 8 14 19 11 23 16 17 15 24 22 34 37 45 67 43 43 25 9 9 8 9 7 9 9 11 4 7 14
65 70 68 61 57 52 47 49 53 63 70 68 20 10 23 48 16 10 7 15 12 37 10 8 13 1 19 24 17 24 36 18 64 62 44 54 10 12 26 12 16 13 18 25 19 6 14
65 75 74 69 65 65 60 56 58 66 78 73 38 6 13 15 16 12 14 5 30 13 31 33 5 14 9 11 38 27 30 11 16 63 34 25 27 18 9 8 11 10 25 37 32 31 20
74 79 80 78 77 78 77 64 63 69 92 62 29 12 15 14 37 35 31 16 12 15 21 28 30 22 22 11 15 33 25 22 15 18 31 18 8 11 3 10 9 8 18 21 32 28 23
89 87 86 84 82 82 75 73 66 64 86 49 35 26 37 25 14 20 19 13 31 17 15 43 45 22 26 33 24 32 31 23 26 33 32 20 9 7 8 10 11 12 19 28 20 19 31
89 92 92 95 89 81 73 70 68 65 78 44 56 33 16 11 21 36 28 20 17 29 9 7 33 8 18 34 33 35 30 30 22 15 14 17 17 5 7 8 17 8 9 23 30 5 5
98 91 89 88 84 80 76 77 77 74 69 82 60 55 20 6 13 16 18 27 13 12 21 5 36 42 55 30 6 8 3 6 5 6 6 19 11 5 10 9 7 7 3 11 17 8 7
86 88 92 86 85 82 80 81 79 78 66 79 75 50 30 13 13 16 24 32 17 5 4 5 24 51 45 6 4 8 7 10 11 8 6 15 15 10 4 9 15 12 4 15 3 5 8
63 73 76 80 85 86 89 88 86 80 77 71 65 69 37 17 16 40 19 23 26 15 6 3 11 14 28 6 5 6 2 2 12 17 17 18 11 21 7 4 10 4 15 16 11 7 16
32 46 57 70 79 86 95 98 91 88 80 76 70 67 45 12 18 18 33 33 32 29 10 13 15 3 4 6 6 5 6 7 6 2 11 10 11 11 6 6 13 19 8 8 14 18 19
28 42 34 51 81 94 94 99 97 100 86 82 63 63 51 22 15 20 22 27 32 38 22 29 3 11 23 8 3 6 6 4 9 10 4 5 9 11 3 5 12 28 32 24 22 24 12
Wind_Direction_500mb
248 249 245 245 244 246 246 247 243 239 241 240 243 247 246 244 241 240 241 242 239 240 239 240 234 231 238 237 224 29 48 199 212 232 229 216 215 235 230 253 288 262 262 269 274 296 277
249 246 244 247 246 241 244 242 242 242 241 242 247 251 247 246 247 241 236 237 240 237 234 232 233 228 232 241 243 232 245 316 241 229 226 205 209 224 276 260 259 302 312 301 316 305 263
246 247 250 251 251 245 246 244 242 240 243 244 243 243 248 239 240 239 233 231 233 236 230 232 229 232 237 232 200 228 239 246 267 256 230 213 212 250 284 310 314 302 301 335 283 273 253
239 240 248 249 247 241 244 244 243 241 242 242 242 247 242 246 239 235 232 228 227 231 228 229 228 235 247 256 231 216 186 220 225 234 228 208 227 243 253 260 330 336 223 260 242 252 261
244 242 241 247 248 244 242 243 243 242 242 241 241 243 240 240 241 232 229 230 225 224 225 221 219 220 259 253 232 218 204 209 208 212 220 223 233 223 223 143 298 253 248 238 289 242 253
245 243 241 240 250 245 242 243 240 240 240 239 238 237 233 229 233 231 222 221 220 218 217 217 211 207 248 215 216 220 219 220 217 218 198 214 208 198 130 185 224 223 231 251 236 263 200
246 243 246 245 245 249 243 240 238 236 233 231 229 230 229 224 229 229 211 204 202 226 214 201 187 186 300 214 208 210 202 204 212 209 187 196 191 219 217 208 215 256 256 256 309 288 181
252 253 250 246 246 244 239 235 236 233 230 227 228 227 231 231 233 225 218 205 203 193 202 223 211 216 207 159 186 213 199 191 198 192 166 155 234 188 194 215 221 246 263 269 286 255 224
253 250 248 245 245 239 237 239 237 235 233 230 226 226 228 232 232 222 221 215 200 212 296 216 221 212 216 227 233 202 195 198 184 186 189 208 183 201 191 225 225 226 232 242 243 296 239
250 249 243 243 237 234 233 236 235 232 236 235 233 231 228 220 217 217 220 215 211 208 228 212 198 230 216 211 253 221 205 188 216 210 201 219 228 216 210 229 204 240 215 233 252 277 262
254 260 242 242 237 232 230 230 227 227 229 228 226 224 218 215 208 210 214 208 201 197 216 186 181 188 193 191 155 206 201 196 186 170 166 211 174 203 225 224 188 252 263 222 220 232 299
254 256 253 245 239 231 230 227 224 222 224 220 218 217 212 211 213 216 207 188 185 223 214 170 152 178 166 196 202 177 189 201 202 184 297 206 150 169 212 209 206 216 27 33 7 142 248
251 251 245 239 233 230 228 222 221 220 216 214 213 215 208 206 206 200 196 181 196 225 143 183 177 176 187 184 200 176 183 191 186 193 211 159 195 159 134 177 141 131 108 246 225 212 248
250 253 242 235 230 224 220 218 218 218 215 213 214 211 210 211 207 195 185 214 212 201 180 206 171 187 191 186 198 201 190 200 199 204 183 206 217 175 168 203 196 206 198 224 220 212 267
251 259 230 226 221 211 211 210 210 210 209 210 210 208 208 205 204 197 195 206 213 178 172 153 155 184 197 197 177 196 204 204 203 191 176 197 220 95 183 148 169 181 206 242 268 127 319
243 242 232 211 205 204 206 205 206 205 203 202 198 198 208 203 197 194 207 226 215 195 168 182 181 201 195 190 190 190 193 200 201 191 190 201 190 183 169 117 237 204 158 154 205 240 249
234 230 238 208 201 203 205 204 210 207 205 196 196 193 202 197 189 207 203 216 215 213 171 208 199 182 199 183 196 193 191 202 200 184 200 167 118 187 136 201 181 176 180 159 132 247 202
223 217 222 214 211 209 207 217 207 205 206 196 189 176 193 194 190 211 195 179 214 221 181 180 228 204 210 190 184 197 211 208 188 176 191 203 139 184 184 343 112 204 211 188 186 181 207
219 218 217 215 219 214 211 211 206 208 198 192 178 172 182 186 194 175 148 199 218 206 221 150 200 200 201 204 202 197 202 201 186 174 186 178 176 151 168 230 173 189 187 175 91 122 213
220 215 216 215 217 218 218 219 217 219 198 193 177 160 173 181 190 183 115 182 185 199 181 177 176 228 171 192 204 215 208 188 182 195 183 166 153 206 222 212 134 187 174 207 186 167 216
216 217 216 214 218 219 219 217 230 215 196 192 194 210 174 161 178 178 175 203 182 167 196 203 254 199 188 208 185 196 199 142 190 189 182 159 205 181 239 143 149 176 188 193 206 214 199
216 215 215 216 216 218 220 221 224 204 190 176 169 160 191 162 172 172 186 201 214 184 151 179 222 208 214 225 211 182 172 162 170 190 170 178 197 151 128 145 152 204 217 207 215 231 256
216 215 214 216 219 222 218 215 215 205 197 180 185 161 163 170 145 168 195 172 193 210 227 191 206 174 198 233 196 200 177 151 155 171 182 164 122 134 206 142 102 300 201 200 205 206 222
213 213 213 214 215 218 215 212 209 210 197 183 195 148 160 163 163 202 170 185 160 188 180 215 201 151 164 161 112 109 95 77 82 22 152 151 155 122 133 85 227 252 205 187 204 98 285
208 208 209 211 213 214 212 208 203 205 207 205 181 189 192 130 166 165 204 189 131 173 215 270 201 193 152 115 102 110 177 95 67 41 218 172 143 121 161 187 308 334 195 147 168 202 26
196 203 206 207 209 209 208 203 202 203 202 196 190 182 195 131 223 189 190 182 181 189 87 187 234 187 184 91 120 221 171 130 145 150 324 143 160 168 127 167 208 219 131 356 124 248 40
188 198 201 205 207 206 202 201 197 198 199 202 197 198 210 136 159 182 181 189 158 155 128 95 172 118 147 152 100 194 115 127 157 162 175 159 176 194 161 178 282 314 320 331 123 210 98
157 188 200 204 203 202 201 198 199 193 193 192 189 199 197 113 148 185 186 162 143 166 158 213 102 111 47 105 147 144 116 207 87 92 180 163 145 191 144 153 253 1 329 184 116 107 112
127 157 183 206 202 193 188 186 185 188 189 187 188 187 204 173 123 130 139 181 181 164 172 199 145 168 176 108 119 120 103 77 142 187 265 167 173 158 131 164 86 54 93 94 146 129 109
Wind_Speed_850mb
52 52 62 58 61 56 59 61 56 51 48 47 48 50 55 47 46 48 44 36 37 32 32 29 32 34 32 26 37 3 11 7 26 31 33 28 17 11 6 9 15 13 27 37 38 39 15
62 65 62 55 62 60 53 61 63 58 57 58 55 52 52 53 47 44 48 43 35 35 32 31 30 35 36 35 27 49 18 8 13 32 34 30 12 19 18 15 9 16 15 10 14 26 23
68 60 57 63 73 70 66 65 61 62 61 58 52 46 45 50 46 42 43 46 41 36 35 31 31 37 48 49 18 21 34 34 35 21 34 41 31 24 2 6 17 13 6 11 14 25 13
67 61 60 61 62 64 64 62 68 62 62 62 60 54 51 43 47 41 39 39 44 38 35 34 33 33 30 30 61 22 12 26 23 23 17 27 31 36 24 16 15 7 1 4 9 29 31
67 67 59 61 63 60 67 66 66 64 65 60 59 53 48 49 43 43 37 35 39 41 33 35 36 33 21 24 59 54 16 30 31 23 19 22 24 23 9 7 6 5 8 13 11 31 9
67 66 66 58 66 64 65 68 72 66 63 63 63 56 48 46 42 37 36 31 32 37 39 36 35 18 40 22 30 55 50 33 39 37 27 27 15 5 6 10 22 18 12 11 14 13 12
57 67 63 65 67 70 68 69 63 64 63 61 61 58 51 46 42 37 34 32 21 18 48 23 28 27 5 45 28 44 59 45 39 34 15 16 8 26 27 17 9 11 9 14 8 9 12
60 64 68 66 66 71 67 66 67 65 60 62 60 59 57 51 41 42 43 49 38 8 15 68 28 68 41 24 27 38 55 41 36 14 16 6 37 11 14 15 17 21 21 31 12 9 8
59 67 71 71 72 71 70 70 70 64 65 58 57 55 50 49 43 48 59 62 37 35 6 18 73 46 59 57 30 52 57 50 11 18 25 24 10 41 19 20 16 20 31 15 20 10 6
61 62 69 64 67 69 64 65 67 68 69 67 62 60 55 42 46 55 60 54 45 24 8 14 24 32 60 29 20 46 68 47 16 34 23 23 22 14 19 34 22 30 18 12 10 8 14
55 60 50 48 58 62 67 66 65 66 67 64 66 62 58 59 50 60 33 49 47 30 16 20 27 21 49 51 19 49 63 55 21 15 17 19 16 28 33 30 19 19 11 13 14 12 4
51 55 56 61 60 62 64 64 63 61 62 61 63 62 60 60 62 55 61 37 41 19 17 17 29 32 28 58 24 31 59 54 23 9 3 15 5 9 11 17 29 6 2 8 9 5 17
51 60 59 63 60 64 62 62 61 59 57 58 59 61 61 64 76 53 51 53 20 23 13 17 20 28 51 29 47 21 37 38 24 23 33 10 8 3 6 9 7 7 9 5 9 10 20
58 60 62 65 64 64 62 62 61 58 59 57 57 55 60 65 64 66 67 21 33 20 13 5 18 33 53 48 37 39 35 37 42 20 18 27 17 20 12 18 10 18 22 8 15 12 8
57 63 67 65 65 61 59 56 55 54 55 56 52 53 56 64 69 72 55 33 23 12 23 22 14 30 36 46 24 44 43 47 34 46 18 25 17 7 13 11 17 8 19 18 16 5 5
57 48 57 59 60 57 52 56 53 53 53 52 55 51 60 66 66 80 31 33 8 19 14 23 31 20 40 49 40 47 51 34 40 35 12 13 6 8 13 9 6 15 9 6 8 8 15
62 48 47 41 50 48 50 53 50 53 53 50 52 28 44 70 68 55 18 25 21 17 32 24 42 26 16 29 36 39 23 17 39 44 42 11 7 8 20 24 27 14 10 7 6 5 4
63 56 48 41 44 51 52 52 53 55 56 52 39 8 43 73 17 6 23 12 33 7 34 17 9 26 34 37 17 42 42 36 72 64 40 22 10 11 8 1 2 29 22 21 9 9 6
65 62 58 53 50 47 47 46 56 56 56 63 19 21 47 78 17 6 9 8 14 19 11 23 16 17 15 24 22 34 37 45 67 43 43 25 9 9 8 9 7 9 9 11 4 7 14
65 70 68 61 57 52 47 49 53 63 70 68 20 10 23 48 16 10 7 15 12 37 10 8 13 1 19 24 17 24 36 18 64 62 44 54 10 12 26 12 16 13 18 25 19 6 14
65 75 74 69 65 65 60 56 58 66 78 73 38 6 13 15 16 12 14 5 30 13 31 33 5 14 9 11 38 27 30 11 16 63 34 25 27 18 9 8 11 10 25 37 32 31 20
74 79 80 78 77 78 77 64 63 69 92 62 29 12 15 14 37 35 31 16 12 15 21 28 30 22 22 11 15 33 25 22 15 18 31 18 8 11 3 10 9 8 18 21 32 28 23
89 87 86 84 82 82 75 73 66 64 86 49 35 26 37 25 14 20 19 13 31 17 15 43 45 22 26 33 24 32 31 23 26 33 32 20 9 7 8 10 11 12 19 28 20 19 31
89 92 92 95 89 81 73 70 68 65 78 44 56 33 16 11 21 36 28 20 17 29 9 7 33 8 18 34 33 35 30 30 22 15 14 17 17 5 7 8 17 8 9 23 30 5 5
98 91 89 88 84 80 76 77 77 74 69 82 60 55 20 6 13 16 18 27 13 12 21 5 36 42 55 30 6 8 3 6 5 6 6 19 11 5 10 9 7 7 3 11 17 8 7
86 88 92 86 85 82 80 81 79 78 66 79 75 50 30 13 13 16 24 32 17 5 4 5 24 51 45 6 4 8 7 10 11 8 6 15 15 10 4 9 15 12 4 15 3 5 8
63 73 76 80 85 86 89 88 86 80 77 71 65 69 37 17 16 40 19 23 26 15 6 3 11 14 28 6 5 6 2 2 12 17 17 18 11 21 7 4 10 4 15 16 11 7 16
32 46 57 70 79 86 95 98 91 88 80 76 70 67 45 12 18 18 33 33 32 29 10 13 15 3 4 6 6 5 6 7 6 2 11 10 11 11 6 6 13 19 8 8 14 18 19
28 42 34 51 81 94 94 99 97 100 86 82 63 63 51 22 15 20 22 27 32 38 22 29 3 11 23 8 3 6 6 4 9 10 4 5 9 11 3 5 12 28 32 24 22 24 12
Wind_Direction_850mb
248 249 245 245 244 246 246 247 243 239 241 240 243 247 246 244 241 240 241 242 239 240 239 240 234 231 238 237 224 29 48 199 212 232 229 216 215 235 230 253 288 262 262 269 274 296 277
249 246 244 247 246 241 244 242 242 242 241 242 247 251 247 246 247 241 236 237 240 237 234 232 233 228 232 241 243 232 245 316 241 229 226 205 209 224 276 260 259 302 312 301 316 305 263
246 247 250 251 251 245 246 244 242 240 243 244 243 243 248 239 240 239 233 231 233 236 230 232 229 232 237 232 200 228 239 246 267 256 230 213 212 250 284 310 314 302 301 335 283 273 253
239 240 248 249 247 241 244 244 243 241 242 242 242 247 242 246 239 235 232 228 227 231 228 229 228 235 247 256 231 216 186 220 225 234 228 208 227 243 253 260 330 336 223 260 242 252 261
244 242 241 247 248 244 242 243 243 242 242 241 241 243 240 240 241 232 229 230 225 224 225 221 219 220 259 253 232 218 204 209 208 212 220 223 233 223 223 143 298 253 248 238 289 242 253
245 243 241 240 250 245 242 243 240 240 240 239 238 237 233 229 233 231 222 221 220 218 217 217 211 207 248 215 216 220 219 220 217 218 198 214 208 198 130 185 224 223 231 251 236 263 200
246 243 246 245 245 249 243 240 238 236 233 231 229 230 229 224 229 229 211 204 202 226 214 201 187 186 300 214 208 210 202 204 212 209 187 196 191 219 217 208 215 256 256 256 309 288 181
252 253 250 246 246 244 239 235 236 233 230 227 228 227 231 231 233 225 218 205 203 193 202 223 211 216 207 159 186 213 199 191 198 192 166 155 234 188 194 215 221 246 263 269 286 255 224
253 250 248 245 245 239 237 239 237 235 233 230 226 226 228 232 232 222 221 215 200 212 296 216 221 212 216 227 233 202 195 198 184 186 189 208 183 201 191 225 225 226 232 242 243 296 239
250 249 243 243 237 234 233 236 235 232 236 235 233 231 228 220 217 217 220 215 211 208 228 212 198 230 216 211 253 221 205 188 216 210 201 219 228 216 210 229 204 240 215 233 252 277 262
254 260 242 242 237 232 230 230 227 227 229 228 226 224 218 215 208 210 214 208 201 197 216 186 181 188 193 191 155 206 201 196 186 170 166 211 174 203 225 224 188 252 263 222 220 232 299
254 256 253 245 239 231 230 227 224 222 224 220 218 217 212 211 213 216 207 188 185 223 214 170 152 178 166 196 202 177 189 201 202 184 297 206 150 169 212 209 206 216 27 33 7 142 248
251 251 245 239 233 230 228 222 221 220 216 214 213 215 208 206 206 200 196 181 196 225 143 183 177 176 187 184 200 176 183 191 186 193 211 159 195 159 134 177 141 131 108 246 225 212 248
250 253 242 235 230 224 220 218 218 218 215 213 214 211 210 211 207 195 185 214 212 201 180 206 171 187 191 186 198 201 190 200 199 204 183 206 217 175 168 203 196 206 198 224 220 212 267
251 259 230 226 221 211 211 210 210 210 209 210 210 208 208 205 204 197 195 206 213 178 172 153 155 184 197 197 177 196 204 204 203 191 176 197 220 95 183 148 169 181 206 242 268 127 319
243 242 232 211 205 204 206 205 206 205 203 202 198 198 208 203 197 194 207 226 215 195 168 182 181 201 195 190 190 190 193 200 201 191 190 201 190 183 169 117 237 204 158 154 205 240 249
234 230 238 208 201 203 205 204 210 207 205 196 196 193 202 197 189 207 203 216 215 213 171 208 199 182 199 183 196 193 191 202 200 184 200 167 118 187 136 201 181 176 180 159 132 247 202
223 217 222 214 211 209 207 217 207 205 206 196 189 176 193 194 190 211 195 179 214 221 181 180 228 204 210 190 184 197 211 208 188 176 191 203 139 184 184 343 112 204 211 188 186 181 207
219 218 217 215 219 214 211 211 206 208 198 192 178 172 182 186 194 175 148 199 218 206 221 150 200 200 201 204 202 197 202 201 186 174 186 178 176 151 168 230 173 189 187 175 91 122 213
220 215 216 215 217 218 218 219 217 219 198 193 177 160 173 181 190 183 115 182 185 199 181 177 176 228 171 192 204 215 208 188 182 195 183 166 153 206 222 212 134 187 174 207 186 167 216
216 217 216 214 218 219 219 217 230 215 196 192 194 210 174 161 178 178 175 203 182 167 196 203 254 199 188 208 185 196 199 142 190 189 182 159 205 181 239 143 149 176 188 193 206 214 199
216 215 215 216 216 218 220 221 224 204 190 176 169 160 191 162 172 172 186 201 214 184 151 179 222 208 214 225 211 182 172 162 170 190 170 178 197 151 128 145 152 204 217 207 215 231 256
216 215 214 216 219 222 218 215 215 205 197 180 185 161 163 170 145 168 195 172 193 210 227 191 206 174 198 233 196 200 177 151 155 171 182 164 122 134 206 142 102 300 201 200 205 206 222
213 213 213 214 215 218 215 212 209 210 197 183 195 148 160 163 163 202 170 185 160 188 180 215 201 151 164 161 112 109 95 77 82 22 152 151 155 122 133 85 227 252 205 187 204 98 285
208 208 209 211 213 214 212 208 203 205 207 205 181 189 192 130 166 165 204 189 131 173 215 270 201 193 152 115 102 110 177 95 67 41 218 172 143 121 161 187 308 334 195 147 168 202 26
196 203 206 207 209 209 208 203 202 203 202 196 190 182 195 131 223 189 190 182 181 189 87 187 234 187 184 91 120 221 171 130 145 150 324 143 160 168 127 167 208 219 131 356 124 248 40
188 198 201 205 207 206 202 201 197 198 199 202 197 198 210 136 159 182 181 189 158 155 128 95 172 118 147 152 100 194 115 127 157 162 175 159 176 194 161 178 282 314 320 331 123 210 98
157 188 200 204 203 202 201 198 199 193 193 192 189 199 197 113 148 185 186 162 143 166 158 213 102 111 47 105 147 144 116 207 87 92 180 163 145 191 144 153 253 1 329 184 116 107 112
127 157 183 206 202 193 188 186 185 188 189 187 188 187 204 173 123 130 139 181 181 164 172 199 145 168 176 108 119 120 103 77 142 187 265 167 173 158 131 164 86 54 93 94 146 129 109